TimeCET,TemperatureF,Dew PointF,Humidity,Sea Level PressureIn,VisibilityMPH,Wind Direction,Wind SpeedMPH,Gust SpeedMPH,PrecipitationIn,Events,Conditions,WindDirDegrees,DateUTC
12:25 AM,51.8,50.0,94,29.47,3.1,South,8.1,-,N/A,,Heavy Drizzle,170,2013-03-08 23:25:00
12:55 AM,50.0,50.0,100,29.47,3.7,South,8.1,-,N/A,,Heavy Drizzle,190,2013-03-08 23:55:00
1:00 AM,51,49,89,29.48,6,South,8.9,,,Rain,Drizzle,190,2013-03-09 00:00:00
1:25 AM,50.0,48.2,94,29.47,6.2,South,9.2,-,N/A,,Drizzle,190,2013-03-09 00:25:00
1:55 AM,50.0,48.2,94,29.47,6.2,South,8.1,-,N/A,,Drizzle,190,2013-03-09 00:55:00
2:25 AM,50.0,46.4,87,29.47,6.2,South,6.9,-,N/A,,Overcast,180,2013-03-09 01:25:00
2:55 AM,50.0,46.4,87,29.47,6.2,South,9.2,-,N/A,,Mostly Cloudy,180,2013-03-09 01:55:00
3:25 AM,50.0,44.6,82,29.44,6.2,SSW,16.1,-,N/A,,Overcast,200,2013-03-09 02:25:00
3:55 AM,48.2,44.6,87,29.44,6.2,SW,16.1,-,N/A,,Overcast,220,2013-03-09 02:55:00
4:00 AM,49,45,79,29.47,28,SW,15.7,,,,Partly Cloudy,220,2013-03-09 03:00:00
4:25 AM,48.2,46.4,93,29.44,6.2,SW,16.1,-,N/A,,Mostly Cloudy,220,2013-03-09 03:25:00
4:55 AM,46.4,46.4,100,29.44,-9999.0,SW,16.1,-,N/A,,Heavy Drizzle,220,2013-03-09 03:55:00
5:25 AM,46.4,44.6,93,29.44,-9999.0,SW,16.1,-,N/A,,Heavy Drizzle,230,2013-03-09 04:25:00
5:55 AM,46.4,44.6,93,29.44,1.9,SW,15.0,-,N/A,Rain,Light Rain,230,2013-03-09 04:55:00
6:25 AM,46.4,44.6,93,29.44,6.2,SW,12.7,-,N/A,,Light Drizzle,230,2013-03-09 05:25:00
6:55 AM,46.4,46.4,100,29.44,3.1,WSW,8.1,-,N/A,,Drizzle,240,2013-03-09 05:55:00
7:00 AM,46,46,98,29.47,3,WSW,8.9,,,Rain,Heavy Drizzle,240,2013-03-09 06:00:00
7:25 AM,46.4,46.4,100,29.44,3.1,WSW,5.8,-,N/A,,Heavy Drizzle,250,2013-03-09 06:25:00
7:55 AM,46.4,44.6,93,29.44,3.7,West,8.1,-,N/A,Rain,Light Rain,260,2013-03-09 06:55:00
8:25 AM,46.4,44.6,93,29.47,-9999.0,WSW,9.2,-,N/A,Rain,Light Rain,240,2013-03-09 07:25:00
8:55 AM,46.4,44.6,93,29.47,6.2,WSW,13.8,-,N/A,,Drizzle,240,2013-03-09 07:55:00
9:25 AM,46.4,44.6,93,29.47,6.2,SW,16.1,-,N/A,,Drizzle,230,2013-03-09 08:25:00
9:55 AM,48.2,46.4,93,29.50,5.6,SW,17.3,-,N/A,Rain,Heavy Drizzle,230,2013-03-09 08:55:00
10:00 AM,47,46,93,29.51,5,SW,15.7,,,Rain,Heavy Rain,230,2013-03-09 09:00:00
10:25 AM,48.2,46.4,93,29.50,5.0,WSW,13.8,-,N/A,Rain,Light Rain,240,2013-03-09 09:25:00
10:55 AM,48.2,46.4,93,29.50,4.3,WSW,12.7,-,N/A,Rain,Light Rain,240,2013-03-09 09:55:00
11:25 AM,48.2,46.4,93,29.50,3.7,WSW,10.4,-,N/A,Rain,Light Rain,240,2013-03-09 10:25:00
11:55 AM,48.2,46.4,93,29.50,3.7,WSW,10.4,-,N/A,Rain,Light Rain Showers,240,2013-03-09 10:55:00
12:25 PM,48.2,46.4,93,29.53,5.0,WSW,12.7,-,N/A,Rain,Light Rain,240,2013-03-09 11:25:00
12:55 PM,48.2,46.4,93,29.53,5.0,WSW,10.4,-,N/A,Rain,Light Rain,250,2013-03-09 11:55:00
1:25 PM,48.2,46.4,93,29.53,-9999.0,WSW,12.7,-,N/A,,Heavy Drizzle,240,2013-03-09 12:25:00
1:55 PM,48.2,46.4,93,29.50,-9999.0,WSW,9.2,-,N/A,,Mostly Cloudy,240,2013-03-09 12:55:00
2:25 PM,50.0,46.4,87,29.53,5.6,WSW,10.4,-,N/A,,Mostly Cloudy,250,2013-03-09 13:25:00
2:55 PM,50.0,46.4,87,29.53,6.2,SW,9.2,-,N/A,,Overcast,230,2013-03-09 13:55:00
3:25 PM,50.0,44.6,82,29.53,6.2,WSW,9.2,-,N/A,,Mostly Cloudy,240,2013-03-09 14:25:00
3:55 PM,50.0,44.6,82,29.53,6.2,WSW,9.2,-,N/A,,Scattered Clouds,250,2013-03-09 14:55:00
4:00 PM,50,45,77,29.55,7,WSW,8.9,,,,Scattered Clouds,250,2013-03-09 15:00:00
4:25 PM,50.0,44.6,82,29.53,6.2,West,5.8,-,N/A,,Overcast,260,2013-03-09 15:25:00
4:55 PM,50.0,44.6,82,29.53,6.2,West,5.8,-,N/A,,Overcast,260,2013-03-09 15:55:00
5:25 PM,48.2,46.4,93,29.53,5.6,WSW,8.1,-,N/A,,Mostly Cloudy,240,2013-03-09 16:25:00
5:55 PM,48.2,44.6,87,29.53,3.7,West,8.1,-,N/A,Rain,Light Rain,270,2013-03-09 16:55:00
6:25 PM,46.4,44.6,93,29.53,3.7,West,8.1,-,N/A,,Overcast,260,2013-03-09 17:25:00
6:55 PM,46.4,44.6,93,29.53,3.1,West,8.1,-,N/A,,Mostly Cloudy,270,2013-03-09 17:55:00
7:00 PM,46,44,91,29.57,3,West,8.9,,,,Mist,270,2013-03-09 18:00:00
7:25 PM,46.4,44.6,93,29.53,3.1,West,8.1,-,N/A,,Overcast,260,2013-03-09 18:25:00
7:55 PM,46.4,44.6,93,29.53,-9999.0,West,6.9,-,N/A,,Overcast,270,2013-03-09 18:55:00
8:25 PM,44.6,42.8,93,29.53,2.8,WSW,8.1,-,N/A,,Overcast,250,2013-03-09 19:25:00
8:55 PM,44.6,42.8,93,29.53,3.1,WSW,10.4,-,N/A,,Overcast,250,2013-03-09 19:55:00
9:25 PM,44.6,42.8,93,29.53,3.1,WSW,9.2,-,N/A,,Overcast,250,2013-03-09 20:25:00
9:55 PM,44.6,42.8,93,29.53,-9999.0,West,8.1,-,N/A,,Overcast,260,2013-03-09 20:55:00
10:00 PM,44,42,90,29.57,3,WSW,11.2,,,,Mist,250,2013-03-09 21:00:00
10:25 PM,44.6,42.8,93,29.56,3.1,WSW,9.2,-,N/A,,Overcast,250,2013-03-09 21:25:00
10:55 PM,44.6,41.0,87,29.53,3.7,WSW,11.5,-,N/A,,Overcast,250,2013-03-09 21:55:00
11:25 PM,44.6,41.0,87,29.53,3.1,West,8.1,-,N/A,,Overcast,260,2013-03-09 22:25:00
11:55 PM,44.6,41.0,87,29.53,-9999.0,West,8.1,-,N/A,,Overcast,260,2013-03-09 22:55:00